[[{"header":{"parameterUnit":"m.s-1","parameterCategory":1,"la1":30.2991,"la2":30.254,"lo1":-89.0895,"lo2":-89.0444,"dy":0.0017,"dx":0.0017,"nx":28,"ny":28,"refTime":"2024-06-28T21:00:00:Z","depth":0,"parameterNumber":2,"parameterNumberName":"U-component_of_WINDS"},"data":[0,0,0,0,0,0,0,0,0,0,0,0,0,0,0,0,0,0,0,0,0,0,0,0,0,0,0,0,0,0,0,0,0,0,0,0,0,0,0,0,0,0,0,0,0,0,0,0,0,0,0,0,0,0,0,0,0,0,3.9997,3.9999,0,4.0147,4.0149,4.0151,4.0157,4.0155,4.0154,4.0152,4.0307,4.0312,4.0318,0,0,0,0,0,0,0,0,0,0,0,0,0,3.9716,3.9722,3.9997,3.9999,4.0001,4.0147,4.0149,4.0151,4.0157,4.0155,4.0153,4.0151,4.0305,4.0312,4.0318,0,0,0,0,0,0,0,0,0,0,0,0,0,3.985,3.9723,3.9997,4.0022,4.0025,4.0147,4.0149,4.0152,4.0158,4.0155,4.0152,4.015,4.0302,4.0311,4.0319,4.0426,0,0,4.0346,4.035,0,0,0,0,0,0,0,0,3.9842,3.986,4.0016,4.002,4.0025,4.0131,4.0107,4.0244,4.0159,4.0108,4.0152,4.0149,4.025,4.0263,4.0297,4.0434,4.044,4.0347,4.0352,4.0356,4.0358,0,0,0,0,0,0,0,3.9833,3.9854,4.0057,4.0018,4.0024,4.0025,4.0041,4.0133,4.0192,4.0112,4.0113,4.013,4.0252,4.0289,4.0301,4.0443,4.0346,4.0354,4.0359,4.0363,4.0674,4.0677,0,0,0,0,0,0,3.9819,3.9846,4.0052,4.0061,3.9925,4.0033,4.005,4.0099,4.0191,4.0203,4.0132,4.013,4.0275,4.0291,4.0306,4.0437,4.0356,4.0364,4.0369,4.0671,4.0675,4.0678,0,0,0,0,0,0,3.9813,3.9837,4.0046,3.9954,3.9981,4.004,4.0095,4.0104,4.014,4.0207,4.0217,4.0159,4.0274,4.0294,4.0396,4.0443,4.0368,4.0376,4.0667,4.0672,4.0676,4.07,0,0,0,0,0,0,3.9805,3.9835,3.9876,3.9955,3.9985,4.0133,4.0098,4.0109,4.0155,4.0154,4.0234,4.0245,4.0273,4.0383,4.0405,4.0453,4.0382,4.0663,4.0669,4.0675,4.0695,4.0705,4.0713,0,0,0,0,0,3.9795,3.9877,3.9878,3.9903,4.0038,4.0136,4.0154,4.0184,4.0159,4.0201,4.0243,4.0243,4.0434,4.0394,4.0418,4.047,4.0661,4.0668,4.0674,4.0692,4.0703,4.0713,0,0,0,0,0,0,3.9803,3.9888,3.989,4.0001,4.0061,4.0137,4.0191,4.0195,4.0264,4.026,4.0294,4.0313,4.0414,4.0452,4.0406,4.0578,4.0545,4.0557,4.0549,4.0561,4.0569,4.0558,4.039,0,0,0,0,0,3.9818,3.989,3.996,4.0051,4.0081,4.0131,4.0174,4.0192,4.0256,4.0282,4.0332,4.0395,4.0469,4.0517,4.0589,4.0701,4.0718,4.0748,4.0757,4.0764,4.0774,4.0836,4.085,4.07,4.07,4.07,0,0,3.9849,3.9904,3.9948,4.0054,4.0103,4.0177,4.0152,4.0232,4.0287,4.0294,4.0394,4.0432,4.0504,4.0612,4.0662,4.0647,4.0819,4.0773,4.0778,4.0784,4.0844,4.0858,4.0871,4.0705,4.0704,4.0704,0,0,3.9943,3.9993,4.0073,4.0123,4.0197,4.0229,4.0248,4.0324,4.035,4.045,4.0457,4.0523,4.065,4.0701,4.0743,4.0856,4.0858,4.0879,4.0925,4.0984,4.0996,4.1007,4.1047,4.1061,4.0889,4.0889,4.0889,0,3.9973,4.0085,4.0114,4.0194,4.024,4.025,4.0332,4.0378,4.0472,4.0504,4.0486,4.0645,4.0694,4.0813,4.0841,4.0875,4.0898,4.087,4.0992,4.1003,4.1013,4.1052,4.1067,4.0891,4.089,4.089,4.089,0,4.0117,4.0194,4.025,4.034,4.0393,4.0473,4.0515,4.0565,4.0578,4.0612,4.0714,4.0773,4.0857,4.0886,4.09,4.1008,4.0996,4.0985,4.0952,4.1029,4.1066,4.1081,4.0893,4.0893,4.0892,4.0892,0,0,4.0222,4.0326,4.0347,4.0387,4.0469,4.053,4.061,4.0691,4.0733,4.0798,4.0866,4.0973,4.0962,4.101,4.103,4.1082,4.1167,4.1065,4.1067,4.1081,4.1289,4.1297,4.1313,4.1169,4.1172,4.1174,4.1283,0,4.0325,4.0468,4.0497,4.0621,4.0692,4.0702,4.0772,4.083,4.0864,4.0929,4.0967,4.1042,4.1023,4.1052,4.1104,4.1146,4.121,4.1139,4.1233,4.1236,4.1214,4.1332,4.1341,4.144,4.1297,4.13,4.1301,0,4.0465,4.0532,4.0663,4.0734,4.0766,4.0828,4.0904,4.0967,4.1033,4.1054,4.1107,4.1121,4.1205,4.1168,4.1284,4.1235,4.1275,4.1301,4.1306,4.1316,4.1273,4.1345,4.1473,4.1488,4.1324,4.1323,4.1321,0,4.0527,4.065,4.0744,4.0779,4.0865,4.0909,4.0947,4.101,4.1057,4.1124,4.1154,4.123,4.1272,4.1331,4.1364,4.1334,4.1478,4.1444,4.1497,4.1497,4.1527,4.1525,4.1663,4.1553,4.1553,4.1553,4.1553,0,4.064,4.0719,4.0774,4.0832,4.0921,4.0953,4.1041,4.1078,4.1134,4.1199,4.1213,4.1274,4.1315,4.1382,4.1409,4.15,4.1519,4.1538,4.1545,4.1537,4.1535,4.1564,4.1558,4.1557,4.1556,4.1555,4.1555,0,4.0725,4.0765,4.0868,4.0941,4.0961,4.1023,4.1086,4.1142,4.1176,4.1258,4.1279,4.1332,4.1412,4.1451,4.155,4.1568,4.1671,4.1674,4.1649,4.1651,4.1703,4.1697,4.1864,4.1888,4.1763,4.1764,4.1765,0,4.0794,4.0855,4.0935,4.0979,4.1018,4.1089,4.1137,4.1171,4.122,4.1299,4.1346,4.1426,4.1491,4.1617,4.1665,4.174,4.1744,4.1797,4.1755,4.1746,4.1744,4.174,4.1746,4.1805,4.1806,4.1807,4.1808,0,4.0912,4.0928,4.0996,4.1071,4.1127,4.1188,4.1248,4.1284,4.1327,4.1382,4.1462,4.1513,4.1614,4.1692,4.1771,4.181,4.1817,4.182,4.1837,4.183,4.1813,4.1822,4.1669,4.1816,4.1816,4.1815,4.1814,4.1814,4.0991,4.1046,4.111,4.1185,4.1233,4.1289,4.1345,4.1385,4.1453,4.1537,4.1553,4.1639,4.1702,4.1809,4.185,4.1918,4.1906,4.193,4.1936,4.1941,4.1943,4.1802,4.1932,4.1932,4.1932,4.1932,4.1932,0,4.1109,4.1151,4.122,4.1302,4.1361,4.1361,4.1427,4.1477,4.1552,4.161,4.1674,4.1767,4.1843,4.1896,4.1974,4.2017,4.2022,4.2037,4.2034,4.2042,4.195,4.1928,4.2031,4.2031,4.2031,4.2031,4.2031,4.2031,4.1178,4.127,4.1294,4.141,4.1451,4.1535,4.1572,4.1623,4.167,4.1773,4.1836,4.187,4.1926,4.2008,4.2078,4.2091,4.2119,4.2134,4.2147,4.206,4.2049,4.2039,4.2018,4.214,4.214,4.2234,4.2235,4.2236]},{"header":{"parameterUnit":"m.s-1","parameterCategory":1,"la1":30.2991,"la2":30.254,"lo1":-89.0895,"lo2":-89.0444,"dy":0.0017,"dx":0.0017,"nx":28,"ny":28,"refTime":"2024-06-28T21:00:00:Z","depth":0,"parameterNumber":3,"parameterNumberName":"V-component_of_WINDS"},"data":[0,0,0,0,0,0,0,0,0,0,0,0,0,0,0,0,0,0,0,0,0,0,0,0,0,0,0,0,0,0,0,0,0,0,0,0,0,0,0,0,0,0,0,0,0,0,0,0,0,0,0,0,0,0,0,0,0,0,2.737,2.7371,0,2.74,2.74,2.74,2.7378,2.7377,2.7376,2.7375,2.7403,2.7405,2.7407,0,0,0,0,0,0,0,0,0,0,0,0,0,2.7293,2.7295,2.737,2.7371,2.7371,2.74,2.74,2.74,2.7378,2.7377,2.7376,2.7375,2.7403,2.7405,2.7407,0,0,0,0,0,0,0,0,0,0,0,0,0,2.7325,2.7295,2.737,2.7363,2.7363,2.7399,2.74,2.74,2.7378,2.7377,2.7375,2.7374,2.7402,2.7405,2.7407,2.7451,0,0,2.7415,2.7416,0,0,0,0,0,0,0,0,2.7323,2.7328,2.7364,2.7364,2.7364,2.7384,2.7383,2.7417,2.7379,2.7372,2.7375,2.7373,2.7398,2.7401,2.7409,2.7453,2.7454,2.7415,2.7416,2.7417,2.7418,0,0,0,0,0,0,0,2.7321,2.7326,2.7382,2.7365,2.7364,2.7358,2.7361,2.7389,2.7393,2.7373,2.7371,2.7375,2.7397,2.7407,2.741,2.7454,2.7415,2.7417,2.7419,2.742,2.7535,2.7537,0,0,0,0,0,0,2.732,2.7325,2.7381,2.7383,2.7339,2.7361,2.7364,2.7379,2.7393,2.7393,2.7376,2.7374,2.7403,2.7407,2.7411,2.7464,2.7417,2.742,2.7421,2.7534,2.7536,2.7538,0,0,0,0,0,0,2.7318,2.7325,2.738,2.7353,2.736,2.7364,2.738,2.738,2.7389,2.7395,2.7395,2.7386,2.7402,2.7407,2.7442,2.7465,2.7421,2.7423,2.7532,2.7535,2.7537,2.757,0,0,0,0,0,0,2.7316,2.7324,2.7342,2.7354,2.7361,2.7411,2.7382,2.7382,2.7394,2.7391,2.7404,2.7405,2.7402,2.7438,2.7444,2.7467,2.7425,2.753,2.7533,2.7536,2.7567,2.7574,2.7579,0,0,0,0,0,2.7313,2.735,2.7343,2.735,2.7383,2.7412,2.7416,2.7413,2.7396,2.7413,2.7417,2.7404,2.7461,2.7442,2.7448,2.7473,2.7529,2.7532,2.7536,2.7565,2.7572,2.7579,0,0,0,0,0,0,2.734,2.7351,2.7344,2.7385,2.7398,2.7408,2.743,2.7421,2.7438,2.7435,2.7429,2.7432,2.7468,2.7474,2.7452,2.7516,2.7492,2.7497,2.7512,2.7519,2.7525,2.7523,2.7427,0,0,0,0,0,2.735,2.7374,2.7382,2.7418,2.7425,2.7426,2.7439,2.7435,2.7448,2.7453,2.7459,2.7471,2.7492,2.7505,2.7525,2.7567,2.757,2.7587,2.7593,2.7598,2.7603,2.7626,2.7634,2.7549,2.7549,2.7549,0,0,2.7373,2.7382,2.7397,2.7423,2.7433,2.7457,2.7431,2.7457,2.7475,2.7456,2.749,2.7495,2.7508,2.7547,2.7564,2.7552,2.7627,2.7603,2.7606,2.7609,2.7631,2.7639,2.7646,2.7552,2.7551,2.7551,0,0,2.7426,2.7435,2.7466,2.7476,2.7491,2.7492,2.7499,2.7511,2.7514,2.7547,2.7534,2.7554,2.759,2.76,2.761,2.7666,2.7655,2.7672,2.7704,2.7726,2.7733,2.7739,2.776,2.7767,2.7677,2.7677,2.7677,0,2.7452,2.7488,2.7483,2.7511,2.7523,2.7508,2.7539,2.7548,2.7568,2.7577,2.7563,2.7608,2.7615,2.7657,2.7671,2.7679,2.7687,2.7671,2.7733,2.7738,2.7744,2.7764,2.7771,2.7679,2.7679,2.7678,2.7678,0,2.7519,2.7544,2.7567,2.7588,2.7602,2.7631,2.7631,2.7646,2.764,2.7642,2.7676,2.7685,2.7706,2.7715,2.771,2.7756,2.7748,2.7734,2.7709,2.7754,2.7773,2.778,2.7682,2.7681,2.768,2.768,0,0,2.7591,2.7608,2.7617,2.7626,2.7641,2.766,2.7688,2.7709,2.7722,2.7736,2.776,2.779,2.7777,2.7788,2.7783,2.7803,2.7848,2.7786,2.7787,2.7798,2.79,2.7911,2.792,2.7841,2.7842,2.7843,2.7899,0,2.7645,2.7695,2.7692,2.7739,2.7762,2.7747,2.7772,2.7783,2.7786,2.7805,2.7807,2.7829,2.781,2.7816,2.7835,2.7839,2.7869,2.7834,2.7862,2.7864,2.7861,2.793,2.7942,2.7995,2.7906,2.7907,2.7908,0,2.7716,2.7733,2.7783,2.7794,2.7804,2.7826,2.7845,2.7864,2.7876,2.7876,2.7889,2.7881,2.7909,2.7883,2.7921,2.7898,2.7909,2.7912,2.7914,2.7918,2.7889,2.7936,2.8011,2.802,2.7919,2.7919,2.7918,0,2.7764,2.7799,2.7834,2.7842,2.7856,2.7872,2.7879,2.789,2.7903,2.7919,2.7927,2.7946,2.7956,2.7971,2.7968,2.795,2.8007,2.7981,2.8009,2.8009,2.8022,2.8022,2.8102,2.8028,2.8028,2.8028,2.8027,0,2.7826,2.7857,2.7856,2.7877,2.7911,2.7906,2.794,2.7944,2.7954,2.7976,2.7964,2.7984,2.7979,2.7999,2.7996,2.8029,2.8033,2.8034,2.8034,2.8036,2.8036,2.8044,2.8041,2.803,2.8029,2.8029,2.8028,0,2.7886,2.7886,2.7923,2.7933,2.7937,2.7961,2.797,2.799,2.7991,2.8019,2.8025,2.8026,2.8049,2.8048,2.8073,2.8072,2.8112,2.8106,2.8108,2.8107,2.8135,2.8133,2.8223,2.8235,2.8153,2.8154,2.8154,0,2.7926,2.7949,2.7963,2.7976,2.7984,2.8007,2.802,2.8016,2.803,2.8046,2.8064,2.8085,2.8103,2.814,2.8143,2.8163,2.8158,2.8188,2.8161,2.8163,2.8159,2.8159,2.8161,2.8194,2.8195,2.8196,2.8196,0,2.7997,2.7996,2.8016,2.8036,2.8052,2.8068,2.8082,2.8093,2.809,2.8107,2.8131,2.8144,2.817,2.8192,2.8211,2.8217,2.8206,2.8205,2.8212,2.8216,2.8216,2.8217,2.8124,2.8203,2.8202,2.8202,2.8202,2.8201,2.8048,2.8069,2.8082,2.8104,2.8114,2.8128,2.8147,2.8151,2.8171,2.8193,2.8188,2.8215,2.8227,2.8251,2.8258,2.8279,2.8268,2.8278,2.8281,2.8284,2.8288,2.8212,2.8282,2.8282,2.8281,2.8281,2.8281,0,2.812,2.8127,2.8148,2.8168,2.8186,2.8175,2.819,2.8205,2.8229,2.8241,2.8258,2.8286,2.8307,2.8312,2.8332,2.8347,2.8343,2.8353,2.8352,2.8354,2.8296,2.8288,2.8356,2.8356,2.8356,2.8356,2.8356,2.8356,2.8159,2.8193,2.8194,2.8233,2.824,2.8266,2.8276,2.8288,2.8298,2.8329,2.8347,2.835,2.8359,2.838,2.8399,2.8399,2.8408,2.842,2.8419,2.8365,2.8358,2.8351,2.8343,2.8421,2.8421,2.8475,2.8475,2.8476]}]]